This is the latest recevied weather packets stored in our database for station/object KB5DPX. If no packets are shown the sender has not sent any weather packets the latest 1 day(s).
| Time | Temp. | Humidity | Pressure | Rain* | Wind** | Luminosity | Snow |
|---|---|---|---|---|---|---|---|
| 1778021261 | 10.56° C | 45% | 1007.9 hPa | 0 mm | 4.92 m/s, 236° | 313 W/m² | - |
| 1778020966 | 10.56° C | 44% | 1007.8 hPa | 0 mm | 4.02 m/s, 258° | 339 W/m² | - |
| 1778020650 | 10.56° C | 45% | 1007.7 hPa | 0 mm | 4.92 m/s, 253° | 350 W/m² | - |
| 1778020366 | 10.56° C | 44% | 1007.9 hPa | 0 mm | 4.47 m/s, 254° | 383 W/m² | - |
| 1778020044 | 10.56° C | 43% | 1007.7 hPa | 0 mm | 3.58 m/s, 226° | 378 W/m² | - |
| 1778019756 | 10.56° C | 45% | 1007.7 hPa | 0 mm | 3.13 m/s, 255° | 385 W/m² | - |
| 1778019457 | 10.56° C | 44% | 1007.6 hPa | 0 mm | 5.81 m/s, 277° | 401 W/m² | - |
| 1778019162 | 10.56° C | 45% | 1007.6 hPa | 0 mm | 5.36 m/s, 282° | 431 W/m² | - |
| 1778018862 | 10.56° C | 45% | 1007.7 hPa | 0 mm | 5.81 m/s, 253° | 445 W/m² | - |
| 1778018546 | 10.56° C | 44% | 1007.6 hPa | 0 mm | 5.81 m/s, 240° | 455 W/m² | - |
| 1778018252 | 10.56° C | 44% | 1007.7 hPa | 0 mm | 4.92 m/s, 230° | 464 W/m² | - |
| 1778017965 | 10.56° C | 44% | 1007.6 hPa | 0 mm | 4.02 m/s, 255° | 480 W/m² | - |
| 1778017652 | 10.56° C | 43% | 1007.6 hPa | 0 mm | 3.58 m/s, 259° | 499 W/m² | - |
| 1778017365 | 10.56° C | 45% | 1007.7 hPa | 0 mm | 4.92 m/s, 260° | 515 W/m² | - |
| 1778017065 | 10.56° C | 47% | 1007.5 hPa | 0 mm | 5.36 m/s, 246° | 529 W/m² | - |
| 1778016769 | 11.11° C | 44% | 1007.5 hPa | 0 mm | 5.81 m/s, 223° | 547 W/m² | - |
| 1778016464 | 11.11° C | 46% | 1007.4 hPa | 0 mm | 4.92 m/s, 279° | 563 W/m² | - |
| 1778016151 | 10.56° C | 45% | 1007.5 hPa | 0 mm | 5.36 m/s, 257° | 578 W/m² | - |
| 1778015868 | 11.11° C | 45% | 1007.5 hPa | 0 mm | 6.71 m/s, 288° | 598 W/m² | - |
| 1778015556 | 11.11° C | 45% | 1007.6 hPa | 0 mm | 4.92 m/s, 238° | 608 W/m² | - |
| 1778015243 | 11.11° C | 47% | 1007.6 hPa | 0 mm | 4.47 m/s, 252° | 622 W/m² | - |
| 1778014958 | 11.11° C | 47% | 1007.6 hPa | 0 mm | 5.81 m/s, 255° | 633 W/m² | - |
| 1778014654 | 10.56° C | 45% | 1007.5 hPa | 0 mm | 5.36 m/s, 253° | 647 W/m² | - |
| 1778014361 | 10.56° C | 44% | 1007.5 hPa | 0 mm | 4.92 m/s, 253° | 666 W/m² | - |
| 1778014068 | 10.56° C | 45% | 1007.6 hPa | 0 mm | 6.71 m/s, 263° | 677 W/m² | - |
* Rain latest hour (hover to see other rain measurements)
** Current wind speed in m/s (hover to see current wind gust speed)